Atka, AK

9:30 PM HST on January 19, 2018 (GMT -1000)
Atka

Weather History for PAAK - October, 2012

Change the Weather History Date:

Sunday, October 21, 2012

  Actual Average (PADK) Record (PADK)
Temperature  
Mean Temperature 44 °F -  
Max Temperature 46 °F 46 °F 57 °F (1989)
Min Temperature 42 °F 36 °F 27 °F (1962)
Degree Days  
Heating Degree Days 21    
Moisture  
Dew Point 43 °F    
Average Humidity 91    
Maximum Humidity 100    
Minimum Humidity 87    
Precipitation  
Precipitation 0.00 in - - ()
Sea Level Pressure  
Sea Level Pressure 30.23 in    
Wind  
Wind Speed 10 mph (SE)    
Max Wind Speed 18 mph    
Max Gust Speed 23 mph    
Visibility 6 miles    
Events      
Averages and records for this station are not official NWS values.
T = Trace of Precipitation, MM = Missing Value Source: NWS Daily Summary

Daily Weather History Graph

Daily Weather History Graph

Search for Another Location

Airport or City:

Trip Planner

Search our weather history database for the weather conditions in past years. The results will help you decide how hot, cold, wet, or windy it might be!

Date:

Astronomy

Oct. 21, 2012 Rise Set
Actual Time 9:13 AM HDT 7:27 PM HDT
Civil Twilight 8:39 AM HDT 8:02 PM HDT
Nautical Twilight 7:59 AM HDT 8:42 PM HDT
Astronomical Twilight 7:20 AM HDT 9:21 PM HDT
Moon 3:57 PM HDT (10/21) 12:13 AM HDT (10/21)
Length of Visible Light 11h 23m
Length of Day
10h 14m
Waxing Crescent, 47% of the Moon is Illuminated
Oct 21
Waxing Crescent
Oct 21
First Quarter
Oct 29
Full
Nov 6
Last Quarter
Nov 13
New

Hourly Weather History & Observations

Time (HDT) Temp. Windchill Dew Point Humidity Pressure Visibility Wind Dir Wind Speed Gust Speed Precip Events Conditions
12:16 AM 46.4 °F 39.2 °F 42.8 °F 87% 30.22 in 4.0 mi South 18.4 mph 23.0 mph N/A   Overcast
12:36 AM 46.4 °F 40.1 °F 42.8 °F 87% 30.22 in 3.0 mi SSE 15.0 mph 18.4 mph N/A   Overcast
12:56 AM 44.6 °F 39.2 °F 42.8 °F 93% 30.22 in 2.0 mi South 10.4 mph - N/A   Overcast
1:16 AM 46.4 °F 41.5 °F 42.8 °F 87% 30.22 in 2.0 mi South 10.4 mph - N/A   Overcast
1:36 AM 46.4 °F 41.5 °F 42.8 °F 87% 30.22 in 4.0 mi South 10.4 mph - N/A   Overcast
1:56 AM 46.4 °F 41.1 °F 42.8 °F 87% 30.21 in 4.0 mi South 11.5 mph - N/A   Overcast
2:16 AM 46.4 °F 41.1 °F 42.8 °F 87% 30.21 in 7.0 mi South 11.5 mph - N/A   Overcast
2:36 AM 46.4 °F 41.9 °F 42.8 °F 87% 30.21 in 7.0 mi South 9.2 mph - N/A   Overcast
2:56 AM 46.4 °F 41.9 °F 42.8 °F 87% 30.21 in 7.0 mi South 9.2 mph - N/A   Overcast
3:16 AM 46.4 °F 41.1 °F 44.6 °F 93% 30.21 in 7.0 mi South 11.5 mph - N/A   Overcast
3:36 AM 46.4 °F 40.7 °F 44.6 °F 93% 30.21 in 5.0 mi South 12.7 mph - N/A   Overcast
3:56 AM 46.4 °F 43.5 °F 42.8 °F 87% 30.21 in 10.0 mi SW 5.8 mph - N/A   Overcast
4:16 AM 46.4 °F 42.9 °F 42.8 °F 87% 30.21 in 5.0 mi SW 6.9 mph - N/A   Overcast
4:36 AM 46.4 °F 41.1 °F 42.8 °F 87% 30.21 in 10.0 mi SSW 11.5 mph - N/A   Overcast
4:56 AM 46.4 °F 42.4 °F 42.8 °F 87% 30.20 in 10.0 mi SW 8.1 mph - N/A   Overcast
5:16 AM 46.4 °F 41.1 °F 42.8 °F 87% 30.20 in 10.0 mi SW 11.5 mph - N/A   Overcast
5:36 AM 46.4 °F 41.5 °F 42.8 °F 87% 30.20 in 10.0 mi SW 10.4 mph - N/A   Overcast
5:56 AM 46.4 °F 45.2 °F 42.8 °F 87% 30.20 in 10.0 mi West 3.5 mph - N/A   Overcast
6:16 AM 46.4 °F - 42.8 °F 87% 30.20 in 10.0 mi Calm Calm - N/A   Overcast
6:36 AM 46.4 °F - 42.8 °F 87% 30.21 in 10.0 mi Calm Calm - N/A   Overcast
6:56 AM 46.4 °F 45.2 °F 42.8 °F 87% 30.20 in 5.0 mi WNW 3.5 mph - N/A   Overcast
7:16 AM 44.6 °F - 42.8 °F 93% 30.21 in 10.0 mi Calm Calm - N/A   Overcast
7:36 AM 44.6 °F - 42.8 °F 93% 30.22 in 10.0 mi Calm Calm - N/A   Overcast
7:56 AM 44.6 °F - 42.8 °F 93% 30.22 in 7.0 mi Calm Calm - N/A   Overcast
8:16 AM 44.6 °F - 42.8 °F 93% 30.23 in 10.0 mi Calm Calm - N/A   Overcast
8:36 AM 44.6 °F 41.4 °F 41.0 °F 87% 30.23 in 10.0 mi WNW 5.8 mph - N/A   Mostly Cloudy
8:56 AM 44.6 °F 39.7 °F 42.8 °F 93% 30.23 in 10.0 mi WNW 9.2 mph - N/A   Overcast
9:16 AM 44.6 °F 40.2 °F 42.8 °F 93% 30.24 in 10.0 mi West 8.1 mph - N/A   Overcast
9:36 AM 44.6 °F 40.2 °F 42.8 °F 93% 30.24 in 10.0 mi NW 8.1 mph - N/A   Overcast
9:56 AM 44.6 °F 39.7 °F 42.8 °F 93% 30.25 in 1.0 mi NNW 9.2 mph - N/A   Overcast
10:16 AM 44.6 °F 39.7 °F 42.8 °F 93% 30.25 in 1.0 mi West 9.2 mph - N/A   Overcast
10:36 AM 44.6 °F 41.4 °F 42.8 °F 93% 30.26 in 10.0 mi West 5.8 mph - N/A   Overcast
10:56 AM 46.4 °F 44.3 °F 42.8 °F 87% 30.26 in 10.0 mi North 4.6 mph - N/A   Overcast
11:16 AM 46.4 °F - 42.8 °F 87% 30.27 in 10.0 mi Calm Calm - N/A   Overcast
11:36 AM 46.4 °F 44.3 °F 42.8 °F 87% 30.27 in 5.0 mi East 4.6 mph - N/A   Overcast
11:56 AM 44.6 °F 40.7 °F 42.8 °F 93% 30.28 in 1.5 mi SE 6.9 mph - N/A   Overcast
12:16 PM 44.6 °F 40.2 °F 42.8 °F 93% 30.28 in 0.2 mi SE 8.1 mph - N/A   Overcast
12:36 PM 44.6 °F 40.7 °F 42.8 °F 93% 30.28 in 0.2 mi SE 6.9 mph - N/A   Overcast
12:56 PM 44.6 °F 40.7 °F 42.8 °F 93% 30.28 in 0.2 mi SE 6.9 mph - N/A   Overcast
1:16 PM 44.6 °F 41.4 °F 42.8 °F 93% 30.27 in 0.5 mi ESE 5.8 mph - N/A   Overcast
1:36 PM 44.6 °F 41.4 °F 42.8 °F 93% 30.27 in 0.2 mi ESE 5.8 mph - N/A   Overcast
1:56 PM 42.8 °F 39.3 °F 42.8 °F 100% 30.27 in 0.2 mi SE 5.8 mph - N/A   Overcast
2:16 PM 44.6 °F 40.7 °F 42.8 °F 93% 30.27 in 1.0 mi SE 6.9 mph - N/A   Overcast
2:36 PM 44.6 °F 41.4 °F 42.8 °F 93% 30.27 in 10.0 mi ESE 5.8 mph - N/A   Overcast
2:56 PM 44.6 °F 40.2 °F 42.8 °F 93% 30.26 in 10.0 mi SE 8.1 mph - N/A   Mostly Cloudy
3:16 PM 44.6 °F 39.7 °F 41.0 °F 87% 30.26 in 1.0 mi SE 9.2 mph - N/A   Overcast
3:36 PM 42.8 °F 37.0 °F 41.0 °F 93% 30.26 in 0.2 mi SE 10.4 mph - N/A   Overcast
3:56 PM 42.8 °F 36.2 °F 41.0 °F 93% 30.26 in 0.2 mi SE 12.7 mph - N/A   Overcast
4:16 PM 42.8 °F 37.0 °F 41.0 °F 93% 30.25 in 1.2 mi SE 10.4 mph - N/A   Overcast
4:36 PM 42.8 °F 36.6 °F 41.0 °F 93% 30.24 in 10.0 mi SE 11.5 mph - N/A   Overcast
4:56 PM 44.6 °F 38.1 °F 42.8 °F 93% 30.24 in 10.0 mi SE 13.8 mph - N/A   Overcast
5:16 PM 44.6 °F 38.1 °F 42.8 °F 93% 30.23 in 10.0 mi ESE 13.8 mph - N/A   Overcast
5:36 PM 44.6 °F 38.4 °F 42.8 °F 93% 30.24 in 5.0 mi ESE 12.7 mph - N/A   Overcast
5:56 PM 44.6 °F 38.8 °F 42.8 °F 93% 30.23 in 2.5 mi East 11.5 mph - N/A   Overcast
6:16 PM 44.6 °F 38.4 °F 42.8 °F 93% 30.24 in 10.0 mi East 12.7 mph - N/A   Overcast
6:36 PM 44.6 °F 39.2 °F 42.8 °F 93% 30.24 in 10.0 mi ESE 10.4 mph - N/A   Overcast
6:56 PM 46.4 °F 40.7 °F 42.8 °F 87% 30.24 in 10.0 mi ESE 12.7 mph - N/A   Overcast
7:16 PM 44.6 °F 37.2 °F 42.8 °F 93% 30.23 in 10.0 mi East 17.3 mph - N/A   Overcast
7:36 PM 42.8 °F 35.4 °F 42.8 °F 100% 30.23 in 0.8 mi ESE 15.0 mph - N/A   Overcast
7:56 PM 42.8 °F 34.8 °F 41.0 °F 93% 30.23 in 0.8 mi ESE 17.3 mph - N/A   Overcast
8:16 PM 42.8 °F 36.2 °F 42.8 °F 100% 30.23 in 4.0 mi East 12.7 mph - N/A   Overcast
8:56 PM 44.6 °F 38.1 °F 42.8 °F 93% 30.23 in 2.5 mi East 13.8 mph - N/A   Overcast
9:16 PM 44.6 °F 38.8 °F 42.8 °F 93% 30.23 in 2.5 mi East 11.5 mph - N/A   Overcast
9:36 PM 44.6 °F 38.4 °F 42.8 °F 93% 30.23 in 3.0 mi ESE 12.7 mph - N/A   Overcast
9:56 PM 44.6 °F 38.1 °F 42.8 °F 93% 30.23 in 5.0 mi ESE 13.8 mph - N/A   Overcast
10:16 PM 44.6 °F 38.1 °F 42.8 °F 93% 30.22 in 10.0 mi East 13.8 mph - N/A   Overcast
10:36 PM 44.6 °F 38.1 °F 42.8 °F 93% 30.22 in 10.0 mi East 13.8 mph - N/A   Overcast
10:56 PM 44.6 °F 37.4 °F 42.8 °F 93% 30.22 in 10.0 mi East 16.1 mph - N/A   Overcast
11:16 PM 44.6 °F 36.9 °F 42.8 °F 93% 30.22 in 10.0 mi East 18.4 mph - N/A   Overcast
11:36 PM 44.6 °F 37.8 °F 41.0 °F 87% 30.22 in 8.0 mi ESE 15.0 mph - N/A   Overcast
11:56 PM 44.6 °F 38.4 °F 41.0 °F 87% 30.21 in 10.0 mi SE 12.7 mph - N/A   Overcast